E5175 Weather Reports


time (UTC)temp
C
wind
direction
speed
KPH
gust
KPH
rain 1hr
cm
rain 24hr
cm
rain mn
cm
humidity
%
barometer
mb
20260507191517 19 270 16.1 22.5 0.00 0.00 0.00 37 1013.0
20260507190518 20 270 19.3 29.0 0.00 0.00 0.00 35 1012.9
20260507185518 20 293 16.1 30.6 0.00 0.00 0.00 34 1013.2
20260507184518 20 293 20.9 43.5 0.00 0.00 0.00 34 1013.5
20260507183518 20 270 20.9 35.4 0.00 0.00 0.00 34 1013.5
20260507182517 21 293 20.9 29.0 0.00 0.00 0.00 34 1013.7
20260507181518 20 270 19.3 32.2 0.00 0.00 0.00 35 1013.7
20260507180517 20 293 20.9 32.2 0.00 0.00 0.00 34 1013.9
20260507175518 20 270 24.1 37.0 0.00 0.00 0.00 35 1014.3
20260507174518 20 270 25.7 40.2 0.00 0.00 0.00 36 1014.4
20260507173517 19 270 25.7 40.2 0.00 0.00 0.00 36 1014.3
20260507172517 18 248 25.7 43.5 0.00 0.00 0.00 39 1014.1
20260507171518 18 248 24.1 38.6 0.00 0.00 0.00 39 1014.2
20260507170518 18 270 22.5 35.4 0.00 0.00 0.00 36 1014.6
20260507165518 19 315 20.9 33.8 0.00 0.00 0.00 33 1014.5
20260507164517 20 315 24.1 35.4 0.00 0.00 0.00 31 1014.9
20260507163519 19 315 27.4 41.8 0.00 0.00 0.00 33 1015.1
20260507162517 20 293 20.9 38.6 0.00 0.00 0.00 31 1015.0
20260507161517 18 293 16.1 22.5 0.00 0.00 0.00 32 1015.4
20260507160519 18 293 17.7 32.2 0.00 0.00 0.00 34 1015.6
20260507155518 18 315 14.5 24.1 0.00 0.00 0.00 33 1015.8
20260507154517 17 293 16.1 24.1 0.00 0.00 0.00 35 1015.6
20260507153517 16 315 16.1 25.7 0.00 0.00 0.00 35 1015.5
20260507152517 16 293 12.9 20.9 0.00 0.00 0.00 38 1015.7
20260507151517 15 315 12.9 20.9 0.00 0.00 0.00 39 1015.8
20260507150518 15 315 12.9 19.3 0.00 0.00 0.00 39 1015.9
20260507145519 14 315 12.9 20.9 0.00 0.00 0.00 43 1015.7
20260507144519 13 293 9.7 16.1 0.00 0.00 0.00 44 1015.3
20260507143517 12 315 9.7 14.5 0.00 0.00 0.00 45 1015.6
20260507142517 12 315 12.9 19.3 0.00 0.00 0.00 45 1015.7
20260507141519 11 315 8.0 12.9 0.00 0.00 0.00 51 1015.7
20260507140519 11 338 8.0 12.9 0.00 0.00 0.00 52 1015.6
20260507135519 10 338 6.4 9.7 0.00 0.00 0.00 54 1015.5
20260507134519 9 315 8.0 12.9 0.00 0.00 0.00 56 1015.4
20260507133517 8 315 8.0 12.9 0.00 0.00 0.00 58 1015.2
20260507132519 8 338 4.8 9.7 0.00 0.00 0.00 65 1015.1
20260507131519 7 338 4.8 6.4 0.00 0.00 0.00 67 1014.8
20260507130519 6 0 1.6 4.8 0.00 0.00 0.00 71 1014.7
20260507125519 6 248 3.2 6.4 0.00 0.00 0.00 72 1014.9
20260507124519 5 0.0 3.2 0.00 0.00 0.00 73 1014.3
20260507123519 4 248 1.6 3.2 0.00 0.00 0.00 74 1014.2
20260507122519 4 0.0 0.0 0.00 0.00 0.00 73 1014.0
20260507121519 4 248 4.8 11.3 0.00 0.00 0.00 74 1013.9
20260507120519 3 270 4.8 6.4 0.00 0.00 0.00 74 1013.7
20260507115519 2 293 4.8 6.4 0.00 0.00 0.00 75 1013.4
20260507114519 1 293 3.2 4.8 0.00 0.00 0.00 79 1013.2
20260507113519 0 293 1.6 3.2 0.00 0.00 0.00 78 1012.9
20260507112519 0 293 1.6 3.2 0.00 0.00 0.00 77 1013.0
20260507111519 1 0.0 0.0 0.00 0.00 0.00 76 1013.2
20260507110518 1 0.0 0.0 0.00 0.00 0.00 74 1013.2
20260507105519 2 0.0 0.0 0.00 0.00 0.00 73 1013.5
20260507104519 2 0.0 0.0 0.00 0.00 0.00 72 1013.3
20260507103519 2 293 1.6 3.2 0.00 0.00 0.00 73 1013.6
20260507102519 2 0.0 3.2 0.00 0.00 0.00 75 1013.3
20260507101519 1 293 1.6 3.2 0.00 0.00 0.00 80 1013.1
20260507100520 0 293 3.2 4.8 0.00 0.00 0.00 83 1013.0
20260507095519 -1 293 1.6 4.8 0.00 0.00 0.00 83 1012.4
20260507094519 -1 0.0 3.2 0.00 0.00 0.00 81 1012.3
20260507093519 -1 0.0 0.0 0.00 0.00 0.00 81 1012.4
20260507092519 0 0.0 0.0 0.00 0.00 0.00 79 1012.5
20260507091519 0 0.0 0.0 0.00 0.00 0.00 79 1012.4
20260507090519 0 0.0 1.6 0.00 0.00 0.00 77 1012.7
20260507085518 0 0.0 1.6 0.00 0.00 0.00 80 1012.7
20260507084518 0 0.0 0.0 0.00 0.00 0.00 80 1012.8
20260507083519 0 293 1.6 4.8 0.00 0.00 0.00 83 1012.8
20260507082519 0 0.0 0.0 0.00 0.00 0.00 81 1012.5
20260507081518 0 293 1.6 3.2 0.00 0.00 0.00 80 1012.7
20260507080518 0 293 1.6 3.2 0.00 0.00 0.00 77 1013.0
20260507075518 0 0.0 1.6 0.00 0.00 0.00 81 1013.1
20260507074523 0 0.0 0.0 0.00 0.00 0.00 80 1013.0
20260507073518 0 0.0 0.0 0.00 0.00 0.00 81 1013.4
20260507072518 0 0.0 1.6 0.00 0.00 0.00 80 1013.2
20260507071523 0 293 3.2 4.8 0.00 0.00 0.00 79 1013.0
20260507070519 0 293 1.6 4.8 0.00 0.00 0.00 78 1013.4
20260507065518 1 293 1.6 3.2 0.00 0.00 0.00 77 1013.5
20260507064518 1 293 1.6 3.2 0.00 0.00 0.00 78 1013.6
20260507063521 1 270 3.2 4.8 0.00 0.00 0.00 78 1013.4
20260507062643 1 270 1.6 4.8 0.00 0.00 0.00 75 1013.4
20260507061518 1 270 3.2 4.8 0.00 0.00 0.00 76 1013.7
20260507060518 2 158 1.6 4.8 0.00 0.00 0.00 73 1013.7
20260507055519 2 158 1.6 3.2 0.00 0.00 0.00 74 1013.8
20260507054522 2 0.0 1.6 0.00 0.00 0.00 77 1013.9
20260507053519 2 0.0 0.0 0.00 0.00 0.00 78 1014.0
20260507052524 2 0.0 0.0 0.00 0.00 0.00 77 1013.7
20260507051519 2 0.0 0.0 0.00 0.00 0.00 75 1013.9
20260507050519 2 0.0 1.6 0.00 0.00 0.00 74 1014.0
20260507045519 2 0.0 1.6 0.00 0.00 0.00 73 1013.8
20260507044519 2 0.0 3.2 0.00 0.00 0.00 74 1014.1
20260507043535 2 0.0 0.0 0.00 0.00 0.00 71 1014.2
20260507042522 3 158 1.6 3.2 0.00 0.00 0.00 67 1014.1
20260507041521 4 0.0 0.0 0.00 0.00 0.00 66 1014.3
20260507040519 5 0.0 0.0 0.00 0.00 0.00 64 1014.4
20260507035521 5 0.0 3.2 0.00 0.00 0.00 63 1014.4
20260507034519 5 0.0 1.6 0.00 0.00 0.00 61 1014.4
20260507033519 6 0.0 3.2 0.00 0.00 0.00 60 1014.6
20260507032519 6 0.0 3.2 0.00 0.00 0.00 57 1014.6
20260507031518 6 180 1.6 4.8 0.00 0.00 0.00 55 1014.6
20260507030517 6 180 1.6 4.8 0.00 0.00 0.00 51 1014.7
20260507025519 6 0.0 6.4 0.00 0.00 0.00 49 1014.5
20260507024519 7 0.0 0.0 0.00 0.00 0.00 49 1014.5
20260507023519 8 0.0 0.0 0.00 0.00 0.00 45 1014.8
20260507022519 8 0.0 0.0 0.00 0.00 0.00 42 1014.9
20260507021519 9 0.0 0.0 0.00 0.00 0.00 36 1015.0
20260507020520 10 0.0 0.0 0.00 0.00 0.00 39 1015.2
20260507015518 11 0.0 0.0 0.00 0.00 0.00 37 1015.5
20260507014519 11 293 1.6 4.8 0.00 0.00 0.00 31 1015.5
20260507013519 11 270 3.2 6.4 0.00 0.00 0.00 30 1015.2
20260507012518 12 270 6.4 11.3 0.00 0.00 0.00 30 1015.6
20260507011519 12 270 12.9 19.3 0.00 0.00 0.00 28 1015.3
20260507010518 12 270 14.5 20.9 0.00 0.00 0.00 28 1015.4
20260507005519 12 248 11.3 20.9 0.00 0.00 0.00 28 1015.5
20260507004518 12 270 9.7 16.1 0.00 0.00 0.00 28 1015.6
20260507003519 12 270 16.1 25.7 0.00 0.00 0.00 28 1015.5
20260507002518 12 270 19.3 25.7 0.00 0.00 0.00 28 1015.5
20260507001518 13 248 12.9 24.1 0.00 0.00 0.00 27 1015.8
20260507000518 13 270 11.3 16.1 0.00 0.00 0.00 27 1015.8
20260506235518 13 270 14.5 25.7 0.00 0.00 0.00 28 1016.0
20260506234519 13 225 8.0 14.5 0.00 0.00 0.00 28 1016.1
20260506233518 13 270 6.4 12.9 0.00 0.00 0.00 30 1016.2
20260506232518 13 270 11.3 16.1 0.00 0.00 0.00 29 1016.4
20260506231519 13 248 17.7 29.0 0.00 0.00 0.00 28 1016.5
20260506230518 13 248 12.9 29.0 0.00 0.00 0.00 30 1016.6
20260506225518 13 248 14.5 25.7 0.00 0.00 0.00 30 1016.8
20260506224518 12 225 8.0 19.3 0.00 0.00 0.00 32 1016.6
20260506223518 13 248 16.1 24.1 0.00 0.00 0.00 29 1017.2
20260506222518 12 270 19.3 29.0 0.00 0.00 0.00 30 1017.3
20260506221518 12 270 16.1 24.1 0.00 0.00 0.00 29 1017.4
20260506220518 13 248 14.5 22.5 0.00 0.00 0.00 28 1017.9
20260506215518 12 248 14.5 24.1 0.00 0.00 0.00 30 1017.7
20260506214518 12 270 17.7 27.4 0.00 0.00 0.00 29 1018.1
20260506213518 12 248 17.7 30.6 0.00 0.00 0.00 31 1018.5
20260506212518 12 248 16.1 30.6 0.00 0.00 0.00 31 1018.6
20260506211518 11 293 17.7 29.0 0.00 0.00 0.00 29 1018.5
20260506210518 12 270 20.9 33.8 0.00 0.00 0.00 28 1019.0
20260506205518 12 225 11.3 20.9 0.00 0.00 0.00 31 1019.2
20260506204519 12 225 11.3 24.1 0.00 0.00 0.00 30 1019.4
20260506203518 12 248 11.3 25.7 0.00 0.00 0.00 30 1019.5
20260506202518 12 248 11.3 20.9 0.00 0.00 0.00 31 1019.6
20260506201518 11 270 14.5 22.5 0.00 0.00 0.00 29 1019.4
20260506200520 11 248 14.5 24.1 0.00 0.00 0.00 31 1019.8
20260506195518 11 248 8.0 19.3 0.00 0.00 0.00 30 1019.9
20260506194518 11 270 14.5 22.5 0.00 0.03 0.00 29 1019.8
20260506193518 11 248 8.0 16.1 0.00 0.03 0.00 32 1020.1
20260506192518 11 225 11.3 24.1 0.00 0.03 0.00 33 1020.4